Location: Ar�i�e
(46.1678°N, 14.9611°E)
Time: 11:31:10
(UTC+00:00)

Daily predictions for brighter satellites

Satellite Brightness Start Highest point End
(mag) Time Altitude Azimuth Time Altitude Azimuth Time Altitude Azimuth
Cosmos 2278 Rocket 3.3 16:24:32 10° SSE 16:28:59 24° ESE 16:33:27 10° NE
Okean-O 4.0 16:27:04 10° ESE 16:30:08 19° ENE 16:33:14 10° NNE
CORIOLIS 4.2 16:27:50 10° SSE 16:33:13 90° E 16:38:38 10° NNW
CZ-2C R/B 3.7 16:30:00 10° SE 16:35:05 40° ENE 16:40:24 10° N
NOSS 2-1 (E) 2.9 16:32:02 10° SSW 16:35:20 63° SE 16:38:45 10° NE
Cosmos 1346 Rocket 4.4 16:33:28 10° ESE 16:35:45 15° E 16:38:03 10° NE
Cosmos 1340 3.3 16:32:22 10° SSE 16:35:46 34° E 16:39:11 10° NNE
COSMOS 2455 4.0 16:30:21 10° WSW 16:36:01 41° NW 16:41:42 10° NNE
CZ-4B R/B 3.4 16:31:00 10° SSE 16:36:37 84° WSW 16:42:20 10° NNW
SMAP 3.7 16:36:27 10° S 16:41:02 64° WSW 16:45:41 10° NNW
Cosmos 2058 Rocket 4.3 16:41:35 10° NNW 16:45:57 49° W 16:50:18 10° SSW
Cosmos 1455 2.5 16:44:06 10° NNW 16:47:56 71° W 16:51:45 10° S
Cosmos 405 3.6 16:45:07 10° N 16:48:22 33° ENE 16:51:35 10° SE
ARGOS 4.2 16:44:19 10° ESE 16:48:26 23° ENE 16:52:34 10° N
Cosmos 1626 Rocket 3.5 16:45:34 10° S 16:49:57 78° E 16:54:26 10° NNE
Cosmos 1092 Rocket 4.0 16:44:41 10° S 16:50:42 60° E 16:56:45 10° NNE
Cosmos 1898 Rocket 3.5 16:48:10 10° SSW 16:53:25 76° ESE 16:58:38 10° NNE
TELKOM 3 3.7 16:55:22 10° WNW 16:57:22 32° N 16:58:27 20° ENE
CZ-2C R/B 4.1 16:53:57 10° NE 16:57:24 16° E 17:00:50 10° SE
Cosmos 1680 Rocket 3.9 16:53:27 10° NNW 16:58:39 68° WSW 17:03:48 10° S
Nadezhda 4 Rocket 4.2 16:53:18 10° SSW 16:59:31 75° W 17:05:42 10° N
Cosmos 1328 3.7 16:58:16 10° S 17:02:13 64° E 17:06:10 10° NNE
CZ-4B R/B 1.2 17:01:23 10° NNE 17:04:41 71° ESE 17:07:52 10° S
CZ-2D R/B 3.1 17:01:13 10° SSE 17:05:02 69° ENE 17:08:51 10° N
MOS 1 Rocket 3.2 17:02:13 10° NNE 17:06:25 54° E 17:10:41 10° S
Meteor 1-11 4.4 17:03:00 10° SSE 17:08:28 50° E 17:13:52 10° NNE
Meteor 2-8 Rocket 4.4 17:02:53 10° N 17:09:01 75° E 17:15:08 10° SSE
Cosmos-2242 3.2 17:05:53 10° N 17:10:02 45° ENE 17:14:11 10° SSE
NOSS 3-1 (C) 4.4 17:05:37 10° NW 17:13:09 73° SW 17:21:51 10° SSE
COSMO-SKYMED 1 2.5 17:09:26 10° NNE 17:13:49 81° ESE 17:18:09 10° S
Cosmos 1937 Rocket 3.5 17:10:45 10° SSW 17:16:04 86° ESE 17:21:26 10° NNE
BREEZE-M DEB (TANK) 2.1 17:14:16 10° WNW 17:16:24 47° NNE 17:17:14 30° ENE
Cosmos 1758 Rocket 3.6 17:12:17 10° S 17:16:40 60° E 17:21:07 10° NNE
Cosmos 2098 Rocket 4.4 17:10:02 10° S 17:17:21 66° E 17:24:26 10° NNE
USA 290 2.0 17:19:04 10° NNW 17:22:15 72° ENE 17:25:25 10° SSE
NOSS 2-1 (C) 4.3 17:21:30 10° WSW 17:24:35 35° NW 17:27:19 13° NNE
CZ-4 R/B 4.5 17:20:52 10° SSE 17:25:01 83° WSW 17:29:12 10° NNW
Cosmos 1833 Rocket 2.6 17:20:39 10° NNW 17:26:19 83° ENE 17:31:56 10° SSE
H-2A R/B 2.0 17:22:25 10° SSE 17:27:23 61° ENE 17:32:32 10° N
Cosmos 1939 Rocket 4.3 17:25:59 10° S 17:29:51 40° W 17:33:41 10° NNW
Helios 1A Rocket 3.1 17:26:01 10° SE 17:30:00 49° ENE 17:34:01 10° N
NOSS 2-1 (D) 4.5 17:27:33 10° WSW 17:30:34 31° NW 17:33:06 14° NNE
H-2A R/B 4.0 17:26:57 10° N 17:30:46 29° WNW 17:34:29 10° SW
Cosmos 2344 4.4 17:23:48 10° NW 17:33:11 87° NE 17:46:25 10° SE
Cosmos 1602 Rocket 4.5 17:29:20 10° SSW 17:33:34 50° WNW 17:37:52 10° N
USA 229 DEB 4.2 17:27:18 10° NW 17:34:35 71° WSW 17:42:15 10° SSE
Cosmos 2026 Rocket 4.0 17:28:32 10° S 17:34:41 84° W 17:40:59 10° N
USA 229 4.2 17:27:24 10° NW 17:34:42 72° SW 17:42:23 10° SSE
CZ-3B R/B 2.4 17:32:51 10° WNW 17:35:44 81° SW 17:45:08 10° SE
SJ 16-02 4.0 17:34:27 10° W 17:37:27 18° NW 17:40:26 10° NNW
YAOGAN 1 2.4 17:34:42 10° SSE 17:39:02 81° ENE 17:43:22 10° NNW
Cosmos 1417 Rocket 4.4 17:33:22 10° N 17:39:34 63° ENE 17:45:48 10° SSE
Meteor 2-15 Rocket 4.4 17:33:32 10° N 17:39:43 72° E 17:45:51 10° SSE
SJ-11-01 4.1 17:36:10 10° SSE 17:40:49 72° ENE 17:45:29 10° N
Cosmos 1689 Rocket 1.7 17:41:34 73° ENE 17:41:40 75° ESE 17:44:29 10° S
Cosmos 1553 Rocket 3.9 17:36:22 10° N 17:42:48 76° E 17:49:06 10° SSE
Aureole 3 Rocket 3.5 17:40:13 10° NNW 17:43:24 51° W 17:47:24 10° S
COSMOS 2406 3.7 17:39:54 10° NNW 17:45:37 64° WSW 17:51:17 10° S
Cosmos 2082 Rocket 2.1 17:40:26 10° NNW 17:46:10 67° ENE 17:51:40 11° SE
HJ-1C 3.4 17:47:04 55° NE 17:47:04 55° NE 17:50:02 10° N
Cosmos 1825 Rocket 3.5 17:44:09 10° S 17:48:32 86° W 17:52:59 10° N
Meteor 1-27 4.1 17:44:01 10° N 17:49:39 82° E 17:55:12 10° SSE
NOSS 3-1 (A) 4.4 17:42:45 10° NW 17:50:18 69° WSW 17:58:58 10° SSE
X-37B 1.6 17:48:04 10° W 17:51:05 39° SSW 17:51:36 35° S
deb Kosmos-1763 3.8 17:49:07 10° NNW 17:52:43 70° ENE 17:52:52 69° E
ISS -2.6 17:50:56 10° WNW 17:53:50 32° N 17:53:50 32° N
ATLAS 2AS CENTAUR R/B 4.4 17:52:08 10° NW 17:57:44 21° N 18:00:55 16° NE
CZ-4 R/B 2.2 17:54:51 10° S 17:58:47 50° W 18:02:40 10° NNW
ATLAS 5 CENTAUR R/B 4.2 17:58:23 10° NNW 17:59:41 11° N 18:00:57 10° NNE
Iridium 4 Rocket 4.4 17:55:35 10° NNW 18:00:45 49° W 18:05:27 10° SSW
Cosmos 2315 Rocket 4.3 17:55:18 10° N 18:01:09 40° ENE 18:01:36 39° E
ERS-2 3.0 17:58:38 12° N 18:01:50 49° WNW 18:05:20 10° SSW
CSL-04 Rocket 3.6 17:57:33 10° SSE 18:03:00 82° ENE 18:08:33 10° NNW
Okean-O 3.4 18:01:56 10° S 18:06:15 52° W 18:10:36 10° NNW
USA 234 4.1 18:05:52 28° NE 18:08:10 36° N 18:13:59 10° NW
Ariane Rocket 4.5 18:11:25 22° NNE 18:11:25 22° NNE 18:13:30 10° N
S3M 3.8 18:03:08 10° N 18:09:16 83° E 18:15:25 10° S
CZ-4C R/B 4.2 18:05:47 10° NNW 18:10:22 20° NNE 18:11:46 18° NNE
Cosmos 1346 Rocket 3.9 18:07:57 10° SSW 18:11:43 44° WNW 18:15:11 12° N
Cosmos 1655 Rocket 3.8 18:05:36 10° S 18:11:48 75° E 18:18:01 10° NNE
Cosmos 2278 Rocket 2.8 18:07:04 10° SW 18:12:38 57° WNW 18:17:11 16° NNE
Cosmos 1953 Rocket 3.8 18:10:43 10° SSW 18:15:02 69° W 18:17:58 20° N
Cosmos 2292 Rocket 3.6 18:14:58 10° SSW 18:19:52 72° W 18:20:41 53° NNW
Cosmos 44 Rocket 3.2 18:18:01 10° SSW 18:22:56 88° SE 18:23:19 77° NE
ARGOS 3.7 18:23:00 10° S 18:28:17 58° W 18:33:37 10° NNW
Meteor 2-2 Rocket 4.2 18:24:51 10° N 18:30:52 85° E 18:34:20 27° SSE
Cosmos 1869 4.3 18:27:21 10° NNW 18:30:11 41° NW 18:30:11 41° NW
NOSS 2-2 (D) 4.4 18:27:44 10° NW 18:33:07 68° NE 18:33:29 66° ENE
CZ-2C R/B 2.8 18:33:45 16° N 18:38:17 79° WNW 18:43:54 10° SSW
Cosmos 494 Rocket 4.1 18:37:42 10° NNW 18:42:30 73° WNW 18:42:30 73° WNW
Cosmos 2150 Rocket 4.3 18:40:12 10° SSW 18:45:18 62° WNW 18:45:59 56° NNW
Cosmos 2297 4.3 18:47:25 10° SSW 18:51:23 47° SSW 18:51:23 47° SSW
Cosmos 2082 Rocket 4.5 19:25:36 10° NW 19:29:41 20° W 19:33:41 10° SW
USA 234 4.5 19:53:12 35° NW 19:53:12 35° NW 19:56:53 10° NW
ATLAS 2AS CENTAUR R/B 4.4 19:44:24 10° NNW 19:48:21 26° N 19:48:21 26° N
CZ-4C R/B 4.4 19:54:16 10° NNW 19:56:58 24° NNW 19:56:58 24° NNW
